Location: Washington
(38.8950°N, 77.0370°W)
Time: 03:07:34
(UTC-05:00)

Tiangong 1 - Visible Passes

Search period start: 04 December 2016 00:00
Search period end: 14 December 2016 00:00
Orbit: 349 x 370 km, 42.8° (Epoch: 04 December)

Date Brightness Start Highest point End Pass type
(mag) Time Alt. Az. Time Alt. Az. Time Alt. Az.
04 Dec 2.0 18:27:30 10° SW 18:29:52 37° S 18:29:52 37° S visible
05 Dec 2.9 17:20:36 10° SSW 17:22:52 19° SSE 17:25:08 10° E visible
05 Dec 3.4 18:55:48 10° WSW 18:57:11 24° WSW 18:57:11 24° WSW visible
06 Dec 1.3 17:48:12 10° SW 17:51:10 55° SSE 17:52:43 24° E visible
07 Dec 1.0 18:16:37 10° W 18:19:36 62° NNW 18:19:52 58° NNE visible
08 Dec 2.9 18:45:16 10° WNW 18:46:58 26° WNW 18:46:58 26° WNW visible
09 Dec 1.4 17:37:16 10° W 17:40:14 52° NNW 17:42:19 17° ENE visible
09 Dec 4.4 19:13:51 10° WNW 19:14:00 11° WNW 19:14:00 11° WNW visible
10 Dec 1.8 18:05:52 10° WNW 18:08:43 37° N 18:09:19 33° NNE visible
11 Dec 2.4 18:34:19 10° WNW 18:36:18 30° NW 18:36:18 30° NW visible
12 Dec 1.8 17:26:17 10° WNW 17:29:09 36° N 17:31:37 13° ENE visible
12 Dec 3.8 19:02:34 10° WNW 19:03:18 16° WNW 19:03:18 16° WNW visible
13 Dec 1.4 17:54:36 10° WNW 17:57:32 44° N 17:58:39 29° ENE visible
